FW2218 Weather Reports


Display with metric or nautical units.
time (UTC)temp
F
wind
direction
speed
MPH
gust
MPH
rain 1hr
in
rain 24hr
in
rain mn
in
humidity
%
barometer
mb
20260504090108 59 202 0.0 0.0 0.00 0.00 0.00 65 1003.9
20260504081530 61 202 0.0 0.0 0.00 0.00 0.00 61 1004.0
20260504070106 64 202 0.0 3.0 0.00 0.00 0.00 56 1003.8
20260504044531 71 202 0.0 1.0 0.00 0.00 0.00 46 1003.1
20260504043037 72 202 0.0 1.0 0.00 0.00 0.00 44 1003.0
20260504041530 73 202 0.0 1.0 0.00 0.00 0.00 42 1002.7
20260504040042 74 191 1.0 2.0 0.00 0.00 0.00 41 1002.6
20260504034531 76 157 1.0 3.0 0.00 0.00 0.00 37 1002.4
20260504031538 79 112 5.0 7.0 0.00 0.00 0.00 32 1002.0
20260504030030 81 112 4.0 6.0 0.00 0.00 0.00 32 1002.0
20260504024610 82 112 3.0 4.0 0.00 0.00 0.00 31 1002.0
20260504021532 83 112 2.0 3.0 0.00 0.00 0.00 30 1002.2
20260504020030 84 112 2.0 4.0 0.00 0.00 0.00 29 1002.3
20260504014531 85 111 2.0 4.0 0.00 0.00 0.00 28 1002.4
20260504013033 87 85 1.0 3.0 0.00 0.00 0.00 26 1002.5
20260504011532 87 51 2.0 5.0 0.00 0.00 0.00 26 1002.5
20260504010154 88 349 3.0 6.0 0.00 0.00 0.00 27 1002.7
20260504004526 88 346 4.0 8.0 0.00 0.00 0.00 26 1002.8
20260504003031 89 348 3.0 7.0 0.00 0.00 0.00 26 1003.0
20260504001604 89 346 3.0 6.0 0.00 0.00 0.00 27 1003.1
20260504000116 89 345 3.0 7.0 0.00 0.00 0.00 26 1003.2
20260503234529 89 343 3.0 7.0 0.00 0.00 0.00 26 1003.5
20260503233034 89 342 4.0 8.0 0.00 0.00 0.00 26 1003.6
20260503231530 89 331 3.0 7.0 0.00 0.00 0.00 27 1003.9
20260503230030 88 346 4.0 8.0 0.00 0.00 0.00 28 1004.1
20260503223032 88 342 3.0 8.0 0.00 0.00 0.00 27 1004.6
20260503221529 88 334 4.0 10.0 0.00 0.00 0.00 29 1004.9
20260503214530 88 331 4.0 9.0 0.00 0.00 0.00 29 1005.4
20260503211531 87 41 3.0 7.0 0.00 0.00 0.00 30 1005.9
20260503210028 87 303 3.0 6.0 0.00 0.00 0.00 32 1006.1
20260503203032 85 3 2.0 5.0 0.00 0.00 0.00 31 1006.5
20260503201536 84 352 4.0 9.0 0.00 0.00 0.00 32 1006.7
20260503200032 85 319 3.0 7.0 0.00 0.00 0.00 32 1007.0
20260503193112 82 322 2.0 6.0 0.00 0.00 0.00 36 1007.4
20260503191532 82 326 2.0 5.0 0.00 0.00 0.00 35 1007.6
20260503184534 79 340 2.0 5.0 0.00 0.00 0.00 39 1008.0
20260503183028 78 305 2.0 4.0 0.00 0.00 0.00 44 1008.1
20260503181529 76 334 2.0 5.0 0.00 0.00 0.00 46 1008.3
20260503180031 74 319 2.0 5.0 0.00 0.00 0.00 49 1008.5
20260503174621 72 332 2.0 4.0 0.00 0.00 0.00 52 1008.7
20260503173028 71 330 2.0 5.0 0.00 0.00 0.00 54 1008.8
20260503171616 70 340 2.0 4.0 0.00 0.00 0.00 56 1008.9